FW0220 Weather Reports


Display with metric or nautical units.
time (UTC)temp
F
wind
direction
speed
MPH
gust
MPH
rain 1hr
in
rain 24hr
in
rain mn
in
humidity
%
barometer
mb
20260504100600 45 175 3.0 7.0 0.00 0.00 0.00 60 1017.4
20260504081541 45 173 0.0 2.0 0.00 0.00 0.00 59 1018.1
20260504081039 45 173 0.0 2.0 0.00 0.00 0.00 59 1018.1
20260504080538 45 173 0.0 0.0 0.00 0.00 0.00 57 1018.1
20260504050510 50 244 2.0 6.0 0.00 0.00 0.00 50 1017.8
20260504050012 50 244 2.0 6.0 0.00 0.00 0.00 49 1017.7
20260504045510 50 196 2.0 5.0 0.00 0.00 0.00 48 1017.7
20260504045012 50 202 2.0 6.0 0.00 0.00 0.00 49 1017.7
20260504044511 50 209 2.0 6.0 0.00 0.00 0.00 48 1017.7
20260504044242 50 182 2.0 4.0 0.00 0.00 0.00 48 1017.6
20260504043510 50 182 2.0 4.0 0.00 0.00 0.00 49 1017.6
20260504043011 50 182 2.0 6.0 0.00 0.00 0.00 48 1017.6
20260504042512 50 175 1.0 6.0 0.00 0.00 0.00 48 1017.5
20260504042012 50 200 2.0 5.0 0.00 0.00 0.00 48 1017.4
20260504041743 50 200 2.0 5.0 0.00 0.00 0.00 47 1017.3
20260504041009 50 188 2.0 6.0 0.00 0.00 0.00 47 1017.4
20260504040507 50 189 2.0 6.0 0.00 0.00 0.00 48 1017.4
20260504040007 50 169 2.0 6.0 0.00 0.00 0.00 47 1017.3
20260504035508 51 169 2.0 6.0 0.00 0.00 0.00 47 1017.3
20260504035002 51 132 2.0 7.0 0.00 0.00 0.00 47 1017.3
20260504034502 51 132 2.0 7.0 0.00 0.00 0.00 47 1017.3
20260504034001 50 188 2.0 6.0 0.00 0.00 0.00 47 1017.2
20260504033731 50 69 2.0 6.0 0.00 0.00 0.00 47 1017.2
20260504033007 51 206 2.0 5.0 0.00 0.00 0.00 47 1017.2
20260504032502 51 171 2.0 5.0 0.00 0.00 0.00 46 1017.2
20260504032001 50 213 2.0 5.0 0.00 0.00 0.00 47 1017.2
20260504031502 50 197 2.0 5.0 0.00 0.00 0.00 47 1017.2
20260504031002 50 300 1.0 6.0 0.00 0.00 0.00 48 1017.2
20260504030500 50 327 1.0 6.0 0.00 0.00 0.00 47 1017.2
20260504025959 50 226 1.0 4.0 0.00 0.00 0.00 47 1017.2
20260504025500 50 227 1.0 4.0 0.00 0.00 0.00 48 1017.3
20260504024958 51 226 1.0 3.0 0.00 0.00 0.00 46 1017.3
20260504024728 51 226 0.0 2.0 0.00 0.00 0.00 46 1017.3
20260504023956 51 226 1.0 4.0 0.00 0.00 0.00 45 1017.2
20260504023456 51 226 1.0 4.0 0.00 0.00 0.00 45 1017.3
20260504022956 51 226 1.0 4.0 0.00 0.00 0.00 46 1017.3
20260504022455 51 226 1.0 3.0 0.00 0.00 0.00 45 1017.2
20260504021956 51 226 1.0 3.0 0.00 0.00 0.00 44 1017.2
20260504021455 52 226 1.0 4.0 0.00 0.00 0.00 43 1017.2
20260504020950 52 226 1.0 4.0 0.00 0.00 0.00 44 1017.2
20260504020451 52 226 1.0 4.0 0.00 0.00 0.00 44 1017.3
20260504020349 52 226 1.0 4.0 0.00 0.00 0.00 43 1017.3
20260504020241 52 226 1.0 4.0 0.00 0.00 0.00 43 1017.3
20260504015219 52 226 1.0 3.0 0.00 0.00 0.00 43 1017.2
20260504014450 52 226 1.0 3.0 0.00 0.00 0.00 44 1017.1
20260504013950 52 226 1.0 5.0 0.00 0.00 0.00 44 1017.1
20260504013450 52 226 1.0 5.0 0.00 0.00 0.00 43 1017.1
20260504012948 52 226 0.0 3.0 0.00 0.00 0.00 44 1016.9
20260504012450 52 226 0.0 3.0 0.00 0.00 0.00 44 1016.8
20260504011957 53 226 1.0 5.0 0.00 0.00 0.00 43 1016.7
20260504011951 52 226 0.0 3.0 0.00 0.00 0.00 43 1016.8
20260504011220 53 226 2.0 5.0 0.00 0.00 0.00 43 1016.6
20260504011121 53 226 2.0 5.0 0.00 0.00 0.00 41 1016.6
20260504005946 53 226 2.0 5.0 0.00 0.00 0.00 41 1016.5
20260504005444 53 226 1.0 5.0 0.00 0.00 0.00 41 1016.6
20260504004945 53 226 1.0 5.0 0.00 0.00 0.00 42 1016.5
20260504004446 53 226 2.0 5.0 0.00 0.00 0.00 42 1016.6
20260504003944 53 227 1.0 5.0 0.00 0.00 0.00 41 1016.5
20260504003445 53 227 1.0 5.0 0.00 0.00 0.00 41 1016.5
20260504002943 54 227 1.0 4.0 0.00 0.00 0.00 43 1016.4
20260504002442 54 227 2.0 5.0 0.00 0.00 0.00 42 1016.3
20260504001940 55 227 2.0 6.0 0.00 0.00 0.00 40 1016.2
20260504001440 55 227 2.0 6.0 0.00 0.00 0.00 40 1016.2
20260504001207 55 227 1.0 5.0 0.00 0.00 0.00 40 1016.1
20260504000436 55 227 1.0 3.0 0.00 0.00 0.00 39 1016.1
20260503235934 55 227 1.0 4.0 0.00 0.00 0.00 39 1016.1
20260503235438 56 227 1.0 4.0 0.00 0.00 0.00 38 1016.0
20260503234935 56 227 1.0 4.0 0.00 0.00 0.00 41 1016.0
20260503234433 56 227 1.0 3.0 0.00 0.00 0.00 39 1015.9
20260503233933 56 227 1.0 3.0 0.00 0.00 0.00 39 1015.9
20260503233433 56 227 0.0 3.0 0.00 0.00 0.00 40 1015.9
20260503233205 56 227 0.0 2.0 0.00 0.00 0.00 39 1015.9
20260503232433 56 227 0.0 2.0 0.00 0.00 0.00 39 1015.8
20260503231932 56 227 1.0 6.0 0.00 0.00 0.00 40 1015.9
20260503231432 56 227 2.0 6.0 0.00 0.00 0.00 39 1015.8
20260503230932 56 213 2.0 6.0 0.00 0.00 0.00 39 1015.9
20260503230432 56 42 2.0 8.0 0.00 0.00 0.00 38 1015.9
20260503225931 56 211 3.0 10.0 0.00 0.00 0.00 39 1015.8
20260503225426 56 159 2.0 10.0 0.00 0.00 0.00 38 1015.7
20260503224926 57 193 2.0 7.0 0.00 0.00 0.00 38 1015.8
20260503224425 57 32 3.0 11.0 0.00 0.00 0.00 37 1015.8
20260503223923 57 28 4.0 11.0 0.00 0.00 0.00 38 1015.8
20260503223424 57 42 3.0 9.0 0.00 0.00 0.00 38 1015.7
20260503222923 57 34 2.0 8.0 0.00 0.00 0.00 38 1015.8
20260503222817 57 50 2.0 9.0 0.00 0.00 0.00 38 1015.7
20260503222707 57 305 3.0 9.0 0.00 0.00 0.00 37 1015.8
20260503221654 58 69 2.0 9.0 0.00 0.00 0.00 37 1015.7
20260503221152 57 5 3.0 9.0 0.00 0.00 0.00 37 1015.7
20260503220422 57 39 3.0 7.0 0.00 0.00 0.00 39 1015.7
20260503215922 57 63 3.0 7.0 0.00 0.00 0.00 38 1015.9
20260503215425 57 298 4.0 8.0 0.00 0.00 0.00 37 1015.8
20260503214920 57 22 5.0 9.0 0.00 0.00 0.00 37 1015.8
20260503214420 57 38 5.0 9.0 0.00 0.00 0.00 37 1015.8
20260503213920 58 26 4.0 9.0 0.00 0.00 0.00 38 1015.7
20260503213413 57 36 4.0 9.0 0.00 0.00 0.00 37 1015.7
20260503212911 57 31 6.0 11.0 0.00 0.00 0.00 39 1015.6
20260503212409 57 49 6.0 11.0 0.00 0.00 0.00 37 1015.6
20260503211911 58 331 5.0 11.0 0.00 0.00 0.00 36 1015.5
20260503211408 58 18 5.0 11.0 0.00 0.00 0.00 37 1015.6
20260503211140 57 53 6.0 13.0 0.00 0.00 0.00 36 1015.5
20260503210409 57 45 7.0 16.0 0.00 0.00 0.00 36 1015.6
20260503205908 57 34 7.0 16.0 0.00 0.00 0.00 36 1015.5
20260503205409 57 56 7.0 14.0 0.00 0.00 0.00 36 1015.4
20260503204909 56 24 4.0 12.0 0.00 0.00 0.00 38 1015.4
20260503204410 57 34 4.0 11.0 0.00 0.00 0.00 37 1015.5
20260503203914 57 96 5.0 13.0 0.00 0.00 0.00 36 1015.4
20260503203910 57 34 6.0 13.0 0.00 0.00 0.00 36 1015.5
20260503202909 57 32 5.0 12.0 0.00 0.00 0.00 35 1015.5
20260503202410 57 30 4.0 12.0 0.00 0.00 0.00 34 1015.4
20260503202145 58 40 5.0 13.0 0.00 0.00 0.00 34 1015.5
20260503201909 58 293 4.0 13.0 0.00 0.00 0.00 34 1015.5
20260503200908 57 331 5.0 13.0 0.00 0.00 0.00 33 1015.4
20260503200409 57 0 5.0 14.0 0.00 0.00 0.00 34 1015.6
20260503195911 57 136 6.0 15.0 0.00 0.00 0.00 34 1015.6
20260503195406 57 22 4.0 15.0 0.00 0.00 0.00 33 1015.6
20260503194900 57 355 5.0 11.0 0.00 0.00 0.00 35 1015.8
20260503194623 57 22 6.0 11.0 0.00 0.00 0.00 34 1015.9
20260503194123 56 355 7.0 14.0 0.00 0.00 0.00 36 1015.8
20260503193354 56 5 7.0 14.0 0.00 0.00 0.00 34 1015.9
20260503192854 55 49 7.0 14.0 0.00 0.00 0.00 35 1015.9
20260503192624 56 328 7.0 12.0 0.00 0.00 0.00 34 1016.0
20260503191851 56 32 7.0 13.0 0.00 0.00 0.00 36 1016.1
20260503191356 57 40 6.0 19.0 0.00 0.00 0.00 36 1016.2
20260503191350 56 26 7.0 19.0 0.00 0.00 0.00 33 1016.2
20260503190352 57 13 6.0 16.0 0.00 0.00 0.00 34 1016.3
20260503185852 56 9 7.0 16.0 0.00 0.00 0.00 34 1016.3
20260503185622 56 347 7.0 16.0 0.00 0.00 0.00 36 1016.5
20260503184851 55 355 5.0 10.0 0.00 0.00 0.00 39 1016.7
20260503184353 55 0 4.0 10.0 0.00 0.00 0.00 37 1016.7
20260503184119 56 342 4.0 10.0 0.00 0.00 0.00 36 1016.7
20260503183350 55 115 4.0 8.0 0.00 0.00 0.00 38 1016.9
20260503182850 55 351 4.0 10.0 0.00 0.00 0.00 37 1017.1
20260503182349 54 65 5.0 10.0 0.00 0.00 0.00 38 1017.1
20260503181849 53 32 6.0 14.0 0.00 0.00 0.00 39 1017.1
20260503181619 53 346 6.0 14.0 0.00 0.00 0.00 39 1017.1
20260503180848 53 10 5.0 11.0 0.00 0.00 0.00 39 1017.2
20260503180348 54 30 6.0 11.0 0.00 0.00 0.00 42 1017.2
20260503180120 53 41 8.0 18.0 0.00 0.00 0.00 42 1017.2
20260503175618 52 331 8.0 18.0 0.00 0.00 0.00 40 1017.2
20260503174846 53 355 7.0 15.0 0.00 0.00 0.00 38 1017.4
20260503174347 53 322 6.0 15.0 0.00 0.00 0.00 39 1017.5
20260503173847 53 30 7.0 15.0 0.00 0.00 0.00 38 1017.4
20260503173348 53 18 7.0 15.0 0.00 0.00 0.00 38 1017.4
20260503172847 53 49 7.0 19.0 0.00 0.00 0.00 36 1017.6
20260503172347 53 80 7.0 19.0 0.00 0.00 0.00 40 1017.5
20260503171840 52 29 7.0 14.0 0.00 0.00 0.00 39 1017.7
20260503171342 52 5 8.0 15.0 0.00 0.00 0.00 42 1017.7
20260503170841 52 24 7.0 15.0 0.00 0.00 0.00 41 1017.7
20260503170611 52 34 5.0 14.0 0.00 0.00 0.00 39 1017.7
20260503150835 47 332 6.0 11.0 0.00 0.00 0.00 46 1018.4
20260503150335 47 20 7.0 12.0 0.00 0.00 0.00 45 1018.3
20260503131320 45 49 7.0 11.0 0.00 0.00 0.00 60 1018.7
20260503131049 44 51 7.0 11.0 0.00 0.00 0.00 62 1018.8
20260503130941 44 38 7.0 12.0 0.00 0.00 0.00 60 1018.9
20260503110802 38 11 1.0 4.0 0.00 0.00 0.00 75 1018.5
20260503110257 38 11 2.0 4.0 0.00 0.00 0.00 76 1018.4